Wind_Speed
25 24 22 21 21 20 20 19 18 18 18 18 17 17 17 16 15 13 13 12 12 11 12 12 12 13 13 12 12 12 12 12 13 13 12 12 12 12 12 12 12 12 12 12
25 23 22 24 23 22 21 20 19 19 19 18 17 16 16 16 14 13 13 12 12 12 11 11 11 12 12 12 13 13 12 12 12 12 13 13 12 12 12 13 12 12 13 13
23 22 24 25 24 23 22 20 20 20 21 20 18 16 16 15 14 13 13 12 12 12 12 10 9 10 12 13 13 14 14 14 14 14 13 12 12 11 12 13 13 12 13 13
25 25 26 26 24 23 22 21 22 23 22 21 20 18 16 15 15 14 14 14 14 13 12 11 11 11 12 13 14 15 14 15 14 13 13 13 12 12 13 13 13 14 13 14
25 25 26 25 23 23 22 23 23 24 23 22 21 19 16 16 15 15 14 14 14 13 13 13 13 13 12 13 14 15 15 15 14 14 13 13 13 13 13 13 13 13 13 13
26 26 26 24 24 24 24 24 24 24 23 23 20 19 16 16 15 15 15 15 14 14 14 14 14 13 13 14 14 16 16 15 15 15 15 14 14 14 14 13 13 13 13 14
27 27 26 26 25 25 26 26 25 25 24 22 20 20 16 15 15 15 15 15 14 14 14 15 14 14 14 14 15 15 16 16 16 15 15 15 14 14 13 13 13 13 13 13
27 27 27 26 26 25 26 26 25 25 24 21 20 20 17 15 15 15 15 15 14 14 15 15 15 14 14 15 15 16 17 16 16 15 14 15 15 14 14 14 13 13 13 13
26 25 25 25 26 26 26 25 24 24 23 21 20 18 17 16 15 15 15 15 15 14 14 15 15 15 15 15 15 16 16 17 16 16 15 15 15 15 15 15 14 13 13 13
25 25 25 26 27 28 26 25 24 24 22 21 19 18 16 16 16 15 15 15 14 14 14 14 14 15 15 15 15 16 17 17 17 17 16 16 16 16 16 15 14 14 13 13
26 26 26 28 29 28 27 26 25 23 22 20 19 16 14 14 14 14 14 14 14 14 15 15 15 15 15 14 14 15 16 17 17 17 17 16 16 16 16 15 15 14 14 14
26 27 28 29 29 28 27 26 24 23 21 19 18 14 14 13 13 13 13 13 14 14 15 16 15 15 15 15 15 15 15 16 16 17 17 17 17 16 16 16 16 15 15 15
27 27 28 30 30 29 28 26 24 22 20 19 18 14 13 13 13 13 12 13 13 14 15 16 16 15 15 15 16 15 16 16 16 16 17 18 17 16 15 15 15 15 15 15
27 28 28 28 27 27 27 26 24 23 21 19 18 16 14 14 13 12 12 13 13 14 14 14 16 16 15 15 15 16 16 16 16 17 17 17 17 17 16 16 16 16 15 15
28 28 28 27 27 28 27 27 26 24 22 20 18 16 15 14 13 13 13 13 13 13 14 14 14 15 15 15 16 17 17 17 16 17 17 18 18 18 17 17 17 17 16 16
29 29 28 28 28 28 27 27 26 25 23 21 18 17 15 14 14 14 14 14 14 14 14 14 14 14 15 16 17 17 17 17 17 17 18 18 18 18 18 18 17 17 17 17
28 28 28 27 28 28 28 26 25 24 23 22 20 18 16 15 14 13 12 11 12 13 13 13 13 14 16 17 17 18 18 18 19 18 18 18 18 18 18 18 17 17 18 17
29 28 27 27 27 28 26 25 24 23 22 20 18 17 16 16 15 13 12 11 12 13 13 13 14 14 16 17 18 17 18 18 17 18 18 18 18 18 18 18 18 18 18 18
30 29 28 28 28 27 25 25 24 23 22 21 19 18 17 17 16 15 15 14 14 14 13 13 13 14 15 16 17 17 17 17 17 17 18 18 19 18 18 18 18 17 17 17
30 30 30 29 29 28 26 25 24 23 23 21 21 20 18 18 17 17 17 16 16 15 14 14 13 14 15 16 16 17 17 17 18 18 18 18 18 18 19 19 18 18 18 18
30 30 30 29 30 29 27 26 25 23 21 21 20 20 19 18 18 18 18 17 17 16 16 15 15 16 16 16 16 17 16 16 18 19 19 19 19 18 19 19 19 19 19 19
31 29 29 28 29 29 28 26 25 23 22 22 21 20 19 18 17 18 18 18 18 17 17 17 16 17 17 17 17 17 18 18 18 19 20 19 20 19 19 20 20 21 21 21
30 30 29 29 29 28 27 26 25 24 23 22 21 21 20 19 18 18 18 18 18 18 18 18 18 18 18 18 18 18 19 20 20 20 20 20 20 21 21 21 21 20 21 21
31 30 30 30 28 27 26 25 25 24 24 23 22 22 22 21 20 20 19 18 18 18 19 19 19 19 19 19 20 20 20 20 20 21 21 21 20 21 21 21 22 22 23 23
29 29 29 28 27 27 27 25 24 23 23 22 21 22 22 22 21 20 19 18 18 19 20 20 20 20 20 20 21 20 20 20 20 21 21 22 22 22 22 23 23 24 25 25
28 29 28 27 26 26 26 25 26 25 24 23 22 21 21 21 20 20 20 20 19 19 19 19 19 21 22 22 22 22 22 21 21 21 21 22 22 23 24 25 25 26 27 28
Wind_Direction
235 235 234 236 235 235 236 236 238 237 241 247 251 253 258 264 265 267 270 271 270 272 267 264 262 254 247 241 234 232 230 231 233 233 232 234 236 236 235 232 228 230 233 236
233 231 229 229 229 230 232 232 232 233 239 245 248 254 257 265 267 268 273 272 269 270 271 268 262 249 243 239 232 233 234 235 235 236 236 235 231 233 235 230 229 232 235 237
231 227 226 226 226 227 227 228 227 230 237 243 246 251 258 262 264 268 271 269 265 267 269 264 260 249 239 237 232 231 236 236 234 236 237 234 231 233 233 229 230 231 235 237
224 221 223 224 225 226 225 225 225 230 236 242 247 249 255 260 264 268 270 270 266 262 263 262 259 249 243 236 229 227 231 231 233 234 232 235 230 231 231 229 228 230 233 234
222 221 222 223 224 223 221 223 226 231 237 242 248 250 253 261 269 271 271 271 265 258 258 260 259 251 242 234 229 228 229 230 230 233 233 231 229 231 231 231 229 231 235 236
219 219 220 219 219 220 220 224 228 234 240 244 248 254 257 263 269 271 271 271 264 257 258 258 257 250 244 239 235 232 230 230 230 233 231 228 228 230 231 229 228 232 234 233
217 218 217 216 217 219 221 225 230 235 241 246 250 254 259 266 268 266 267 267 261 257 256 255 253 249 245 241 238 235 230 230 230 233 231 226 225 226 228 226 230 231 232 230
218 218 218 218 219 222 224 228 233 238 243 248 250 255 260 264 266 265 263 263 259 255 254 254 253 249 245 243 239 235 231 230 230 232 232 227 223 224 226 228 231 231 231 229
217 218 219 219 219 221 223 228 234 241 247 251 253 257 259 263 264 265 261 262 259 256 254 252 248 246 245 243 239 233 229 228 229 230 232 227 223 224 225 228 231 230 230 229
215 215 215 216 217 220 224 228 232 240 248 252 253 257 260 262 265 265 261 262 260 257 253 249 242 240 242 241 237 236 230 228 228 228 228 225 223 225 226 227 228 228 228 228
213 213 212 214 217 222 224 227 233 241 248 253 254 257 262 264 267 264 260 258 257 257 251 245 242 242 242 241 238 238 233 229 228 227 225 225 224 227 228 226 226 227 226 228
213 214 212 214 219 222 226 229 234 241 248 253 257 255 261 265 268 265 262 258 256 256 251 246 244 241 243 242 236 236 233 228 226 225 224 225 226 228 229 227 226 226 227 229
212 213 212 214 218 221 225 229 233 240 248 253 255 258 263 263 266 264 263 260 256 252 250 247 245 245 244 240 235 232 229 228 227 225 224 223 225 228 228 227 226 226 227 230
214 217 218 219 222 225 228 230 233 239 246 252 256 261 262 261 261 259 260 261 259 251 247 248 244 243 243 238 234 231 230 231 232 230 224 222 224 228 229 226 225 225 228 229
216 218 217 219 221 225 229 232 236 240 249 255 258 259 259 258 258 259 260 261 260 253 248 248 245 242 240 237 235 233 234 234 231 228 223 222 224 228 230 229 228 228 231 232
219 218 217 218 220 224 230 233 236 240 247 253 255 255 256 258 263 263 262 261 256 249 246 247 243 240 237 237 238 237 236 233 229 228 225 223 224 228 229 230 232 232 230 231
221 219 218 220 223 227 230 232 236 240 247 252 253 253 254 259 262 260 257 252 246 243 243 244 242 241 239 239 239 237 235 232 229 226 224 224 225 226 227 228 231 232 231 233
223 222 223 224 226 230 232 233 237 242 244 246 250 252 256 256 258 253 247 244 242 243 245 246 246 247 242 239 235 234 232 230 229 226 225 224 226 229 231 229 229 233 235 237
225 223 224 226 229 234 234 234 237 241 242 244 249 253 253 254 255 250 247 243 243 244 244 245 246 244 239 234 231 232 233 230 230 230 229 229 231 231 230 230 232 236 237 239
225 225 227 231 233 236 236 236 238 240 241 244 249 251 252 252 253 251 248 244 244 243 245 246 246 244 239 234 233 234 235 232 230 230 231 230 228 230 231 232 235 238 240 242
223 226 231 234 235 235 235 237 239 240 241 245 248 249 249 247 249 247 245 242 243 243 244 245 245 243 240 236 234 234 234 232 231 232 234 231 231 232 233 236 238 241 244 247
224 227 230 232 234 234 235 236 239 242 244 247 249 247 245 245 246 244 242 241 243 246 247 246 245 243 239 237 235 234 234 235 234 232 232 233 233 234 237 238 241 246 248 250
227 229 230 231 234 234 235 237 240 243 244 247 247 241 242 243 245 243 242 242 243 244 244 245 243 243 238 235 235 235 237 237 235 233 234 235 239 241 242 243 244 247 249 250
226 229 230 231 232 233 234 237 241 243 243 245 246 243 244 244 244 244 242 243 244 244 246 245 244 242 238 237 238 237 239 239 237 236 237 239 242 243 244 246 248 249 251 253
225 225 227 230 233 234 234 237 240 241 241 243 244 240 241 241 241 241 241 242 242 246 246 243 244 242 240 239 239 239 237 237 238 238 240 241 243 245 246 247 250 252 254 257
226 227 229 231 232 234 234 236 239 240 241 242 242 241 240 240 241 240 240 240 242 244 243 241 242 240 240 239 239 239 240 241 242 243 243 244 246 248 250 250 252 255 257 258
Height
5808 5813 5816 5820 5822 5825 5827 5830 5833 5835 5835 5837 5839 5840 5841 5841 5842 5843 5843 5844 5844 5844 5845 5845 5845 5845 5846 5848 5849 5850 5852 5854 5855 5857 5858 5859 5861 5862 5864 5865 5866 5868 5869 5871
5805 5809 5813 5814 5817 5820 5823 5827 5829 5832 5832 5834 5836 5837 5838 5838 5839 5840 5840 5841 5841 5841 5842 5842 5842 5842 5844 5845 5846 5848 5850 5851 5853 5854 5856 5857 5858 5860 5861 5863 5864 5866 5867 5869
5800 5806 5807 5810 5813 5817 5820 5824 5826 5828 5829 5831 5833 5835 5835 5836 5836 5837 5837 5838 5838 5839 5839 5839 5840 5840 5841 5843 5844 5846 5848 5849 5850 5852 5853 5855 5856 5857 5859 5860 5862 5864 5865 5867
5795 5799 5802 5806 5809 5813 5817 5820 5822 5824 5826 5827 5830 5831 5833 5833 5834 5834 5834 5834 5835 5836 5836 5837 5838 5838 5838 5840 5841 5843 5844 5846 5847 5849 5850 5852 5854 5855 5857 5858 5860 5861 5863 5864
5791 5795 5798 5802 5807 5810 5814 5816 5818 5820 5822 5824 5825 5827 5830 5830 5830 5831 5831 5831 5831 5833 5834 5834 5835 5835 5836 5837 5838 5840 5841 5843 5845 5847 5848 5849 5851 5853 5854 5856 5858 5859 5860 5862
5786 5790 5794 5799 5803 5806 5809 5811 5814 5816 5818 5820 5822 5824 5826 5826 5827 5828 5828 5828 5828 5829 5830 5831 5831 5832 5833 5835 5836 5837 5838 5840 5842 5844 5845 5847 5848 5850 5852 5854 5855 5857 5858 5860
5782 5786 5790 5794 5797 5801 5804 5807 5810 5812 5814 5817 5819 5820 5823 5823 5824 5824 5824 5824 5824 5825 5827 5827 5828 5829 5830 5831 5832 5834 5835 5837 5839 5841 5842 5844 5846 5848 5850 5851 5853 5854 5856 5857
5778 5782 5786 5790 5794 5797 5800 5804 5807 5809 5811 5813 5815 5815 5819 5819 5820 5820 5820 5821 5821 5822 5823 5824 5824 5825 5826 5827 5829 5830 5832 5834 5836 5837 5839 5841 5843 5845 5847 5849 5851 5852 5854 5856
5774 5779 5783 5787 5790 5794 5796 5799 5803 5806 5807 5809 5811 5812 5814 5815 5816 5816 5817 5817 5817 5819 5820 5821 5821 5822 5823 5824 5826 5827 5828 5831 5832 5834 5836 5837 5840 5842 5844 5846 5848 5850 5852 5853
5770 5775 5779 5783 5786 5789 5793 5796 5799 5801 5803 5804 5807 5808 5810 5811 5811 5812 5812 5813 5814 5815 5816 5817 5818 5819 5821 5822 5823 5823 5825 5827 5829 5831 5833 5835 5837 5840 5841 5843 5845 5847 5849 5851
5765 5770 5774 5778 5781 5785 5789 5792 5794 5797 5799 5801 5803 5807 5807 5807 5808 5808 5809 5810 5811 5811 5812 5814 5815 5816 5817 5819 5820 5821 5822 5824 5826 5828 5830 5832 5834 5837 5838 5840 5842 5844 5846 5848
5761 5765 5769 5773 5777 5781 5785 5788 5791 5794 5796 5798 5800 5805 5803 5804 5804 5804 5805 5806 5807 5808 5809 5810 5811 5813 5814 5815 5816 5817 5819 5820 5823 5825 5827 5829 5832 5834 5836 5838 5839 5841 5843 5845
5756 5760 5764 5768 5774 5777 5780 5784 5787 5790 5792 5794 5796 5801 5800 5800 5800 5801 5801 5802 5803 5805 5806 5807 5808 5809 5810 5811 5812 5814 5815 5817 5819 5822 5824 5826 5829 5831 5833 5835 5837 5838 5840 5842
5752 5756 5761 5765 5769 5773 5776 5780 5783 5786 5788 5790 5793 5795 5796 5796 5797 5797 5798 5798 5799 5801 5802 5803 5804 5805 5806 5807 5809 5811 5812 5814 5816 5819 5821 5823 5826 5828 5830 5832 5834 5836 5838 5839
5746 5751 5756 5761 5764 5768 5772 5776 5778 5781 5784 5787 5789 5790 5792 5792 5793 5794 5794 5795 5796 5797 5798 5799 5800 5801 5803 5804 5806 5808 5809 5811 5813 5815 5817 5820 5823 5825 5827 5829 5831 5833 5835 5836
5741 5746 5751 5755 5759 5763 5767 5771 5774 5777 5780 5782 5784 5786 5788 5788 5789 5790 5791 5791 5792 5793 5794 5796 5796 5798 5799 5801 5803 5804 5806 5808 5810 5812 5814 5817 5819 5821 5824 5826 5828 5829 5831 5833
5736 5741 5746 5750 5754 5758 5762 5765 5769 5772 5775 5778 5780 5783 5783 5785 5786 5786 5787 5788 5788 5789 5791 5792 5793 5794 5795 5797 5799 5801 5802 5805 5807 5809 5811 5814 5816 5818 5820 5822 5824 5826 5828 5830
5732 5736 5741 5745 5750 5752 5759 5761 5764 5767 5770 5772 5775 5777 5779 5780 5781 5783 5784 5784 5785 5787 5788 5789 5789 5790 5791 5793 5795 5797 5799 5801 5803 5806 5808 5810 5813 5815 5817 5819 5821 5823 5825 5826
5727 5731 5736 5740 5743 5747 5752 5756 5759 5762 5765 5768 5770 5772 5774 5775 5777 5779 5780 5781 5782 5783 5784 5785 5786 5787 5788 5789 5791 5794 5796 5798 5800 5802 5804 5807 5809 5811 5813 5815 5817 5819 5821 5823
5721 5726 5731 5734 5738 5742 5748 5751 5754 5758 5760 5763 5765 5767 5769 5771 5773 5775 5775 5776 5778 5779 5781 5782 5783 5784 5785 5787 5789 5791 5793 5795 5797 5799 5801 5803 5805 5807 5810 5812 5814 5816 5818 5819
5715 5719 5724 5728 5732 5737 5742 5745 5749 5753 5757 5758 5760 5762 5764 5766 5768 5770 5771 5772 5773 5775 5776 5778 5779 5780 5782 5784 5786 5788 5790 5792 5794 5795 5797 5799 5802 5804 5806 5808 5810 5812 5813 5815
5709 5714 5718 5723 5727 5733 5736 5740 5744 5747 5750 5752 5755 5757 5759 5760 5762 5764 5766 5767 5769 5770 5772 5773 5775 5777 5779 5781 5783 5785 5786 5788 5790 5792 5793 5795 5798 5800 5802 5804 5806 5807 5809 5810
5703 5709 5713 5719 5724 5727 5731 5734 5738 5741 5744 5747 5749 5752 5754 5756 5757 5759 5761 5763 5765 5766 5768 5769 5771 5772 5774 5777 5779 5781 5782 5784 5786 5788 5790 5792 5793 5795 5797 5799 5801 5802 5803 5805
5698 5703 5708 5712 5716 5721 5725 5729 5732 5736 5739 5741 5744 5747 5749 5751 5753 5755 5756 5758 5760 5762 5763 5765 5766 5768 5770 5772 5774 5776 5778 5780 5781 5784 5785 5787 5789 5790 5792 5794 5795 5797 5798 5799
5692 5697 5702 5706 5711 5715 5719 5723 5726 5729 5733 5736 5738 5741 5743 5746 5748 5750 5751 5753 5754 5756 5758 5760 5761 5763 5765 5767 5769 5771 5773 5775 5777 5779 5781 5782 5784 5785 5787 5788 5790 5791 5792 5793
5687 5692 5697 5702 5706 5710 5714 5717 5720 5724 5727 5730 5733 5736 5738 5740 5742 5744 5745 5747 5749 5751 5753 5754 5756 5758 5760 5762 5764 5766 5768 5770 5772 5774 5775 5777 5778 5780 5781 5782 5783 5784 5785 5786